QPF
0.13 0.14 0.13 0.12 0.12 0.13 0.12 0.12 0.12 0.12 0.12 0.10 0.07 0.08 0.10 0.10 0.08 0.05 0.09 0.11 0.09 0.07 0.06 0.05 0.06 0.06 0.07 0.08 0.10 0.13 0.14 0.14 0.13 0.12 0.10 0.08 0.07 0.06 0.05 0.05 0.04 0.04 0.04
0.14 0.15 0.15 0.13 0.12 0.10 0.09 0.09 0.08 0.09 0.09 0.09 0.08 0.07 0.07 0.07 0.05 0.05 0.08 0.11 0.09 0.06 0.04 0.05 0.05 0.05 0.06 0.08 0.08 0.10 0.12 0.12 0.13 0.12 0.11 0.10 0.08 0.06 0.05 0.04 0.04 0.04 0.04
0.13 0.13 0.14 0.12 0.12 0.09 0.07 0.08 0.08 0.09 0.08 0.09 0.09 0.09 0.08 0.09 0.08 0.07 0.07 0.10 0.10 0.07 0.04 0.03 0.03 0.05 0.05 0.05 0.06 0.07 0.09 0.09 0.11 0.13 0.13 0.13 0.11 0.08 0.07 0.06 0.06 0.06 0.05
0.11 0.13 0.13 0.12 0.12 0.10 0.11 0.10 0.09 0.10 0.09 0.09 0.09 0.08 0.08 0.09 0.08 0.07 0.06 0.07 0.09 0.10 0.07 0.04 0.04 0.04 0.04 0.04 0.04 0.05 0.08 0.09 0.11 0.12 0.12 0.12 0.12 0.11 0.11 0.10 0.08 0.08 0.07
0.10 0.11 0.11 0.10 0.11 0.11 0.12 0.11 0.14 0.12 0.10 0.09 0.08 0.08 0.06 0.07 0.08 0.08 0.07 0.04 0.05 0.06 0.07 0.06 0.05 0.04 0.04 0.05 0.05 0.06 0.07 0.09 0.10 0.10 0.10 0.11 0.12 0.13 0.13 0.11 0.10 0.09 0.08
0.09 0.10 0.10 0.11 0.13 0.13 0.12 0.12 0.14 0.12 0.11 0.10 0.07 0.07 0.07 0.06 0.09 0.10 0.08 0.07 0.07 0.06 0.07 0.08 0.09 0.07 0.05 0.04 0.05 0.06 0.07 0.09 0.10 0.10 0.11 0.11 0.12 0.12 0.12 0.11 0.11 0.10 0.08
0.08 0.09 0.11 0.12 0.11 0.11 0.11 0.11 0.12 0.12 0.12 0.12 0.11 0.09 0.08 0.07 0.07 0.07 0.07 0.07 0.07 0.08 0.08 0.09 0.10 0.10 0.09 0.07 0.05 0.05 0.07 0.09 0.12 0.15 0.15 0.14 0.13 0.11 0.11 0.10 0.09 0.09 0.08
0.09 0.08 0.10 0.10 0.09 0.10 0.11 0.10 0.10 0.09 0.08 0.11 0.11 0.09 0.08 0.07 0.06 0.04 0.06 0.06 0.06 0.07 0.07 0.08 0.09 0.10 0.09 0.10 0.09 0.07 0.06 0.06 0.10 0.13 0.13 0.13 0.14 0.13 0.12 0.12 0.11 0.09 0.07
0.08 0.08 0.08 0.08 0.08 0.08 0.09 0.10 0.10 0.10 0.10 0.11 0.10 0.09 0.08 0.08 0.07 0.06 0.06 0.06 0.05 0.05 0.05 0.06 0.08 0.09 0.08 0.09 0.10 0.09 0.05 0.04 0.06 0.09 0.11 0.11 0.11 0.12 0.13 0.12 0.12 0.11 0.10
0.05 0.08 0.09 0.09 0.13 0.14 0.12 0.09 0.11 0.11 0.11 0.10 0.11 0.10 0.10 0.10 0.08 0.07 0.05 0.04 0.04 0.03 0.04 0.03 0.03 0.05 0.08 0.08 0.08 0.07 0.06 0.05 0.05 0.07 0.09 0.11 0.10 0.09 0.12 0.12 0.12 0.12 0.11
0.04 0.05 0.08 0.11 0.12 0.13 0.14 0.12 0.11 0.10 0.09 0.09 0.09 0.09 0.10 0.09 0.08 0.07 0.06 0.04 0.04 0.03 0.04 0.06 0.06 0.07 0.07 0.07 0.06 0.05 0.05 0.05 0.06 0.06 0.07 0.10 0.10 0.08 0.08 0.09 0.10 0.10 0.10
0.06 0.06 0.06 0.07 0.08 0.10 0.09 0.09 0.09 0.09 0.10 0.09 0.07 0.07 0.07 0.07 0.07 0.07 0.06 0.06 0.05 0.04 0.04 0.05 0.08 0.09 0.10 0.10 0.06 0.05 0.05 0.05 0.05 0.05 0.05 0.07 0.10 0.09 0.07 0.07 0.08 0.09 0.09
0.07 0.06 0.05 0.05 0.07 0.07 0.05 0.05 0.06 0.07 0.09 0.08 0.06 0.06 0.07 0.06 0.07 0.07 0.07 0.07 0.06 0.05 0.04 0.04 0.05 0.08 0.07 0.10 0.14 0.11 0.06 0.05 0.05 0.06 0.06 0.06 0.08 0.09 0.10 0.08 0.07 0.07 0.07
0.06 0.06 0.05 0.04 0.05 0.05 0.05 0.06 0.06 0.05 0.06 0.07 0.07 0.08 0.08 0.08 0.07 0.07 0.08 0.08 0.08 0.07 0.06 0.06 0.07 0.08 0.09 0.09 0.11 0.10 0.07 0.06 0.05 0.05 0.05 0.05 0.05 0.06 0.09 0.10 0.09 0.07 0.06
0.07 0.06 0.05 0.03 0.03 0.03 0.04 0.06 0.07 0.06 0.07 0.07 0.07 0.09 0.10 0.10 0.11 0.11 0.09 0.09 0.09 0.08 0.07 0.09 0.11 0.11 0.12 0.13 0.13 0.08 0.07 0.07 0.06 0.04 0.03 0.03 0.04 0.05 0.05 0.07 0.09 0.08 0.07
0.04 0.04 0.04 0.04 0.03 0.02 0.03 0.05 0.05 0.05 0.06 0.06 0.06 0.07 0.07 0.07 0.08 0.10 0.10 0.10 0.10 0.10 0.09 0.10 0.11 0.13 0.11 0.10 0.11 0.09 0.08 0.07 0.06 0.04 0.03 0.02 0.02 0.03 0.03 0.04 0.05 0.06 0.06
0.04 0.04 0.05 0.04 0.04 0.04 0.05 0.05 0.04 0.04 0.05 0.05 0.06 0.07 0.08 0.06 0.07 0.07 0.08 0.09 0.09 0.10 0.09 0.08 0.08 0.09 0.10 0.09 0.07 0.07 0.07 0.06 0.05 0.03 0.02 0.02 0.02 0.02 0.02 0.03 0.03 0.04 0.06
0.04 0.04 0.04 0.04 0.04 0.05 0.05 0.05 0.03 0.03 0.05 0.06 0.07 0.07 0.09 0.10 0.09 0.07 0.08 0.08 0.08 0.09 0.09 0.07 0.07 0.08 0.09 0.08 0.07 0.07 0.06 0.05 0.05 0.03 0.02 0.02 0.02 0.02 0.02 0.03 0.05 0.05 0.06
0.05 0.05 0.04 0.03 0.04 0.04 0.05 0.05 0.05 0.05 0.05 0.05 0.07 0.08 0.08 0.09 0.09 0.09 0.09 0.09 0.08 0.07 0.09 0.07 0.06 0.06 0.06 0.06 0.07 0.07 0.06 0.06 0.05 0.04 0.03 0.02 0.02 0.02 0.02 0.03 0.05 0.06 0.05
0.04 0.04 0.04 0.03 0.03 0.03 0.04 0.04 0.04 0.05 0.06 0.06 0.07 0.08 0.09 0.10 0.09 0.09 0.10 0.10 0.09 0.08 0.09 0.08 0.06 0.06 0.06 0.07 0.08 0.08 0.09 0.09 0.08 0.06 0.06 0.04 0.03 0.02 0.01 0.02 0.04 0.04 0.04
0.04 0.04 0.04 0.03 0.04 0.03 0.04 0.04 0.04 0.04 0.06 0.06 0.06 0.07 0.07 0.06 0.05 0.05 0.05 0.06 0.06 0.07 0.08 0.08 0.08 0.07 0.06 0.07 0.07 0.07 0.08 0.10 0.11 0.10 0.09 0.06 0.05 0.04 0.03 0.02 0.02 0.03 0.04
0.07 0.07 0.07 0.05 0.04 0.03 0.02 0.02 0.02 0.03 0.05 0.04 0.05 0.06 0.06 0.05 0.04 0.03 0.02 0.03 0.03 0.04 0.05 0.06 0.07 0.06 0.06 0.07 0.08 0.08 0.10 0.12 0.10 0.10 0.09 0.06 0.05 0.05 0.05 0.03 0.02 0.02 0.03
0.10 0.08 0.06 0.05 0.05 0.04 0.02 0.01 0.02 0.04 0.06 0.05 0.04 0.04 0.04 0.03 0.04 0.04 0.03 0.03 0.03 0.02 0.02 0.03 0.04 0.05 0.06 0.07 0.07 0.08 0.10 0.10 0.09 0.09 0.08 0.06 0.05 0.04 0.04 0.03 0.03 0.02 0.02
0.06 0.06 0.06 0.05 0.04 0.03 0.02 0.02 0.02 0.03 0.04 0.04 0.04 0.04 0.04 0.04 0.04 0.04 0.03 0.04 0.04 0.04 0.03 0.02 0.03 0.04 0.04 0.04 0.05 0.05 0.06 0.06 0.05 0.06 0.07 0.06 0.05 0.05 0.05 0.05 0.04 0.03 0.02
0.06 0.06 0.07 0.05 0.04 0.04 0.03 0.02 0.02 0.03 0.04 0.03 0.03 0.03 0.03 0.03 0.03 0.02 0.03 0.03 0.04 0.04 0.02 0.01 0.01 0.01 0.01 0.01 0.01 0.02 0.03 0.05 0.04 0.04 0.06 0.06 0.05 0.05 0.05 0.06 0.04 0.03 0.02
0.05 0.04 0.05 0.04 0.04 0.03 0.02 0.02 0.02 0.03 0.03 0.03 0.02 0.02 0.01 0.01 0.01 0.01 0.02 0.02 0.03 0.03 0.03 0.02 0.02 0.02 0.02 0.02 0.01 0.01 0.03 0.04 0.04 0.05 0.05 0.06 0.05 0.06 0.06 0.06 0.06 0.04 0.03
MSLP
1009.44 1009.13 1008.80 1008.51 1008.33 1008.28 1008.37 1008.57 1008.83 1009.07 1009.25 1009.31 1009.26 1009.12 1008.92 1008.73 1008.61 1008.61 1008.74 1009.02 1009.40 1009.85 1010.32 1010.77 1011.18 1011.53 1011.84 1012.12 1012.41 1012.72 1013.07 1013.46 1013.89 1014.34 1014.79 1015.23 1015.65 1016.03 1016.37 1016.68 1016.96 1017.22 1017.47
1009.10 1008.74 1008.38 1008.07 1007.87 1007.81 1007.89 1008.08 1008.33 1008.58 1008.76 1008.84 1008.80 1008.67 1008.49 1008.31 1008.19 1008.18 1008.30 1008.56 1008.92 1009.34 1009.79 1010.23 1010.62 1010.96 1011.25 1011.53 1011.80 1012.10 1012.44 1012.83 1013.26 1013.71 1014.18 1014.64 1015.08 1015.49 1015.86 1016.20 1016.51 1016.79 1017.05
1008.84 1008.46 1008.08 1007.76 1007.55 1007.47 1007.53 1007.69 1007.92 1008.14 1008.31 1008.39 1008.37 1008.26 1008.11 1007.94 1007.84 1007.82 1007.93 1008.15 1008.47 1008.85 1009.26 1009.65 1010.02 1010.34 1010.63 1010.90 1011.17 1011.46 1011.79 1012.17 1012.59 1013.05 1013.51 1013.98 1014.43 1014.85 1015.24 1015.60 1015.92 1016.22 1016.50
1008.70 1008.31 1007.93 1007.61 1007.39 1007.28 1007.30 1007.42 1007.59 1007.77 1007.91 1007.98 1007.96 1007.88 1007.75 1007.61 1007.52 1007.51 1007.59 1007.77 1008.04 1008.36 1008.72 1009.07 1009.40 1009.70 1009.97 1010.23 1010.50 1010.79 1011.12 1011.49 1011.90 1012.34 1012.79 1013.24 1013.68 1014.10 1014.50 1014.87 1015.20 1015.52 1015.82
1008.68 1008.31 1007.95 1007.64 1007.41 1007.27 1007.24 1007.28 1007.37 1007.47 1007.56 1007.59 1007.57 1007.49 1007.39 1007.28 1007.21 1007.20 1007.26 1007.41 1007.62 1007.88 1008.17 1008.47 1008.76 1009.03 1009.29 1009.55 1009.82 1010.10 1010.43 1010.78 1011.17 1011.59 1012.02 1012.44 1012.86 1013.27 1013.65 1014.01 1014.36 1014.69 1015.00
1008.80 1008.46 1008.13 1007.84 1007.61 1007.44 1007.34 1007.29 1007.28 1007.29 1007.29 1007.26 1007.21 1007.13 1007.04 1006.96 1006.90 1006.89 1006.94 1007.04 1007.20 1007.40 1007.63 1007.87 1008.12 1008.36 1008.60 1008.85 1009.12 1009.41 1009.72 1010.06 1010.43 1010.81 1011.21 1011.60 1011.99 1012.36 1012.73 1013.08 1013.43 1013.77 1014.11
1009.04 1008.74 1008.46 1008.20 1007.97 1007.77 1007.60 1007.46 1007.34 1007.23 1007.13 1007.03 1006.92 1006.82 1006.72 1006.64 1006.59 1006.58 1006.60 1006.67 1006.78 1006.92 1007.09 1007.27 1007.48 1007.69 1007.92 1008.16 1008.42 1008.70 1009.01 1009.33 1009.67 1010.02 1010.38 1010.74 1011.09 1011.44 1011.78 1012.12 1012.47 1012.82 1013.18
1009.36 1009.12 1008.89 1008.67 1008.45 1008.23 1008.00 1007.77 1007.55 1007.32 1007.11 1006.91 1006.74 1006.59 1006.46 1006.37 1006.30 1006.27 1006.26 1006.29 1006.35 1006.43 1006.54 1006.68 1006.85 1007.04 1007.24 1007.48 1007.73 1008.00 1008.29 1008.59 1008.91 1009.23 1009.56 1009.88 1010.21 1010.53 1010.86 1011.20 1011.55 1011.92 1012.31
1009.72 1009.53 1009.36 1009.18 1008.98 1008.75 1008.48 1008.18 1007.86 1007.54 1007.22 1006.93 1006.67 1006.46 1006.28 1006.14 1006.04 1005.97 1005.92 1005.90 1005.91 1005.94 1006.01 1006.10 1006.23 1006.39 1006.58 1006.80 1007.04 1007.30 1007.57 1007.85 1008.14 1008.44 1008.75 1009.06 1009.37 1009.69 1010.02 1010.36 1010.73 1011.12 1011.54
1010.06 1009.91 1009.78 1009.63 1009.46 1009.23 1008.95 1008.61 1008.23 1007.83 1007.43 1007.05 1006.71 1006.42 1006.18 1005.98 1005.82 1005.69 1005.59 1005.52 1005.47 1005.46 1005.48 1005.54 1005.64 1005.77 1005.94 1006.14 1006.35 1006.59 1006.84 1007.10 1007.38 1007.66 1007.96 1008.27 1008.59 1008.93 1009.28 1009.65 1010.04 1010.46 1010.91
1010.33 1010.19 1010.08 1009.96 1009.81 1009.60 1009.32 1008.97 1008.56 1008.12 1007.66 1007.22 1006.81 1006.45 1006.13 1005.86 1005.63 1005.44 1005.28 1005.15 1005.06 1005.00 1004.99 1005.01 1005.08 1005.19 1005.33 1005.50 1005.68 1005.89 1006.11 1006.35 1006.61 1006.89 1007.20 1007.53 1007.88 1008.25 1008.64 1009.05 1009.48 1009.94 1010.41
1010.47 1010.32 1010.21 1010.11 1009.98 1009.79 1009.54 1009.20 1008.80 1008.35 1007.87 1007.39 1006.92 1006.50 1006.11 1005.77 1005.48 1005.22 1005.00 1004.83 1004.69 1004.60 1004.55 1004.55 1004.59 1004.66 1004.77 1004.89 1005.04 1005.21 1005.39 1005.60 1005.85 1006.13 1006.45 1006.81 1007.21 1007.63 1008.08 1008.55 1009.03 1009.53 1010.03
1010.49 1010.31 1010.18 1010.07 1009.95 1009.79 1009.57 1009.27 1008.90 1008.47 1007.99 1007.50 1007.01 1006.54 1006.11 1005.71 1005.36 1005.05 1004.79 1004.57 1004.40 1004.28 1004.21 1004.17 1004.18 1004.22 1004.28 1004.36 1004.45 1004.57 1004.71 1004.88 1005.11 1005.39 1005.73 1006.13 1006.58 1007.07 1007.59 1008.12 1008.65 1009.19 1009.72
1010.40 1010.17 1010.01 1009.89 1009.78 1009.64 1009.45 1009.20 1008.87 1008.47 1008.02 1007.54 1007.05 1006.56 1006.10 1005.67 1005.28 1004.94 1004.65 1004.41 1004.22 1004.08 1003.98 1003.92 1003.90 1003.89 1003.90 1003.92 1003.95 1004.00 1004.09 1004.23 1004.43 1004.70 1005.06 1005.49 1005.99 1006.54 1007.12 1007.72 1008.31 1008.88 1009.44
1010.27 1009.99 1009.79 1009.65 1009.53 1009.41 1009.25 1009.04 1008.76 1008.40 1007.99 1007.54 1007.06 1006.58 1006.11 1005.67 1005.27 1004.92 1004.62 1004.37 1004.17 1004.01 1003.90 1003.82 1003.75 1003.70 1003.65 1003.61 1003.57 1003.56 1003.59 1003.67 1003.84 1004.11 1004.47 1004.92 1005.46 1006.06 1006.69 1007.34 1007.97 1008.58 1009.15
1010.16 1009.85 1009.61 1009.44 1009.32 1009.20 1009.06 1008.87 1008.63 1008.32 1007.94 1007.52 1007.07 1006.60 1006.15 1005.72 1005.33 1004.99 1004.69 1004.45 1004.25 1004.09 1003.96 1003.85 1003.75 1003.65 1003.54 1003.44 1003.34 1003.26 1003.24 1003.27 1003.41 1003.65 1004.00 1004.46 1005.02 1005.64 1006.30 1006.98 1007.64 1008.27 1008.84
1010.15 1009.81 1009.56 1009.37 1009.22 1009.10 1008.96 1008.79 1008.56 1008.27 1007.92 1007.52 1007.10 1006.66 1006.24 1005.83 1005.46 1005.14 1004.86 1004.63 1004.43 1004.26 1004.12 1003.99 1003.85 1003.71 1003.56 1003.41 1003.26 1003.13 1003.06 1003.06 1003.15 1003.36 1003.70 1004.14 1004.69 1005.30 1005.97 1006.65 1007.31 1007.94 1008.51
1010.26 1009.92 1009.65 1009.44 1009.28 1009.14 1008.99 1008.81 1008.58 1008.29 1007.95 1007.57 1007.17 1006.76 1006.36 1005.98 1005.64 1005.34 1005.08 1004.86 1004.67 1004.50 1004.34 1004.18 1004.02 1003.85 1003.66 1003.48 1003.30 1003.15 1003.04 1003.02 1003.08 1003.26 1003.56 1003.97 1004.48 1005.07 1005.70 1006.35 1006.99 1007.60 1008.16
1010.48 1010.15 1009.88 1009.66 1009.47 1009.30 1009.12 1008.91 1008.66 1008.37 1008.02 1007.65 1007.26 1006.87 1006.49 1006.14 1005.83 1005.55 1005.31 1005.09 1004.90 1004.72 1004.54 1004.36 1004.18 1003.99 1003.79 1003.60 1003.42 1003.26 1003.16 1003.12 1003.17 1003.32 1003.57 1003.93 1004.38 1004.91 1005.48 1006.08 1006.67 1007.25 1007.78
1010.76 1010.44 1010.16 1009.93 1009.71 1009.51 1009.29 1009.05 1008.77 1008.44 1008.09 1007.71 1007.33 1006.95 1006.60 1006.27 1005.98 1005.72 1005.48 1005.27 1005.06 1004.86 1004.67 1004.47 1004.28 1004.08 1003.89 1003.71 1003.55 1003.42 1003.33 1003.30 1003.35 1003.47 1003.68 1003.98 1004.35 1004.79 1005.28 1005.80 1006.33 1006.86 1007.36
1011.01 1010.70 1010.41 1010.15 1009.91 1009.67 1009.41 1009.13 1008.81 1008.47 1008.10 1007.72 1007.34 1006.98 1006.64 1006.34 1006.06 1005.81 1005.57 1005.34 1005.12 1004.90 1004.69 1004.47 1004.27 1004.08 1003.91 1003.76 1003.63 1003.55 1003.49 1003.49 1003.53 1003.64 1003.80 1004.03 1004.32 1004.67 1005.06 1005.49 1005.94 1006.40 1006.86
1011.15 1010.83 1010.53 1010.25 1009.97 1009.69 1009.40 1009.09 1008.75 1008.38 1008.01 1007.63 1007.27 1006.92 1006.61 1006.32 1006.05 1005.80 1005.56 1005.32 1005.07 1004.83 1004.59 1004.36 1004.15 1003.97 1003.82 1003.71 1003.63 1003.59 1003.58 1003.61 1003.66 1003.75 1003.87 1004.03 1004.23 1004.47 1004.76 1005.09 1005.46 1005.86 1006.28
1011.15 1010.81 1010.48 1010.17 1009.86 1009.56 1009.24 1008.91 1008.55 1008.19 1007.82 1007.46 1007.12 1006.80 1006.50 1006.23 1005.97 1005.72 1005.47 1005.21 1004.94 1004.66 1004.40 1004.15 1003.94 1003.76 1003.63 1003.55 1003.52 1003.52 1003.55 1003.60 1003.66 1003.73 1003.80 1003.90 1004.02 1004.16 1004.35 1004.59 1004.88 1005.22 1005.60
1011.00 1010.63 1010.27 1009.93 1009.60 1009.28 1008.95 1008.62 1008.27 1007.92 1007.58 1007.24 1006.93 1006.63 1006.36 1006.10 1005.85 1005.60 1005.33 1005.05 1004.76 1004.46 1004.17 1003.90 1003.68 1003.50 1003.38 1003.31 1003.30 1003.33 1003.38 1003.44 1003.49 1003.54 1003.58 1003.62 1003.66 1003.72 1003.83 1003.98 1004.20 1004.49 1004.83
1010.75 1010.35 1009.97 1009.61 1009.27 1008.95 1008.63 1008.31 1007.99 1007.67 1007.35 1007.05 1006.76 1006.48 1006.23 1005.98 1005.73 1005.48 1005.20 1004.91 1004.59 1004.27 1003.96 1003.67 1003.42 1003.23 1003.10 1003.04 1003.02 1003.05 1003.09 1003.14 1003.19 1003.21 1003.21 1003.19 1003.18 1003.18 1003.22 1003.31 1003.47 1003.70 1004.02
1010.47 1010.05 1009.66 1009.30 1008.97 1008.66 1008.37 1008.08 1007.79 1007.50 1007.21 1006.93 1006.66 1006.40 1006.15 1005.90 1005.65 1005.38 1005.10 1004.79 1004.46 1004.13 1003.80 1003.49 1003.23 1003.01 1002.86 1002.76 1002.72 1002.72 1002.74 1002.76 1002.77 1002.76 1002.73 1002.68 1002.62 1002.58 1002.57 1002.61 1002.73 1002.93 1003.21
Thickness
5730 5728 5726 5723 5722 5721 5720 5718 5717 5717 5716 5716 5715 5716 5716 5715 5715 5716 5715 5715 5714 5712 5710 5710 5709 5709 5708 5707 5707 5706 5705 5705 5704 5703 5702 5701 5700 5699 5699 5698 5698 5697 5696
5726 5724 5721 5719 5718 5716 5715 5713 5713 5712 5711 5711 5711 5711 5711 5711 5712 5711 5710 5710 5709 5707 5706 5706 5706 5705 5705 5704 5704 5703 5703 5702 5702 5701 5700 5700 5699 5698 5697 5697 5696 5696 5695
5721 5719 5716 5715 5713 5712 5710 5709 5708 5707 5706 5706 5705 5706 5706 5707 5707 5707 5707 5706 5706 5704 5702 5702 5702 5701 5701 5700 5701 5700 5700 5700 5700 5699 5698 5698 5697 5696 5695 5695 5695 5694 5693
5716 5714 5711 5709 5708 5706 5704 5702 5701 5699 5699 5699 5699 5700 5701 5702 5702 5702 5702 5701 5701 5700 5698 5697 5697 5696 5696 5696 5696 5696 5697 5697 5697 5697 5696 5696 5695 5694 5694 5694 5693 5692 5691
5712 5709 5706 5703 5702 5700 5698 5697 5695 5693 5692 5692 5693 5694 5695 5696 5697 5697 5696 5695 5695 5694 5693 5692 5692 5691 5691 5691 5692 5692 5692 5693 5693 5694 5693 5693 5693 5692 5692 5692 5691 5691 5690
5706 5704 5701 5698 5696 5694 5692 5690 5688 5688 5687 5687 5688 5689 5689 5691 5691 5691 5690 5690 5689 5689 5688 5688 5687 5686 5686 5686 5686 5687 5687 5688 5689 5689 5690 5690 5690 5690 5689 5689 5689 5689 5688
5701 5698 5695 5693 5690 5688 5686 5684 5682 5682 5682 5682 5679 5678 5682 5685 5685 5685 5685 5683 5683 5683 5683 5682 5682 5681 5680 5680 5680 5681 5682 5682 5683 5684 5685 5685 5685 5686 5686 5686 5686 5686 5686
5696 5693 5690 5687 5684 5682 5679 5677 5676 5674 5675 5675 5671 5667 5667 5671 5674 5678 5677 5676 5676 5676 5676 5677 5676 5676 5675 5675 5675 5675 5676 5676 5677 5678 5679 5680 5680 5681 5681 5682 5682 5682 5682
5690 5687 5684 5681 5678 5675 5673 5671 5670 5668 5665 5667 5666 5661 5656 5657 5660 5666 5668 5668 5668 5668 5668 5670 5670 5670 5671 5671 5670 5669 5670 5671 5672 5673 5673 5674 5675 5676 5677 5678 5678 5678 5679
5683 5681 5678 5674 5671 5669 5666 5665 5664 5662 5660 5657 5658 5658 5655 5654 5649 5651 5656 5659 5660 5660 5661 5662 5663 5663 5664 5665 5664 5664 5664 5664 5665 5666 5667 5668 5669 5670 5671 5672 5672 5673 5674
5677 5674 5672 5668 5665 5663 5660 5659 5657 5656 5655 5652 5650 5649 5648 5648 5647 5643 5643 5647 5650 5652 5653 5654 5655 5655 5657 5657 5657 5657 5657 5658 5659 5660 5661 5662 5663 5664 5666 5667 5667 5668 5669
5671 5668 5666 5663 5660 5657 5655 5652 5651 5650 5649 5647 5645 5644 5642 5640 5639 5638 5637 5639 5640 5643 5646 5646 5647 5648 5649 5650 5651 5651 5651 5651 5652 5653 5654 5655 5656 5657 5659 5661 5662 5663 5664
5664 5661 5660 5657 5654 5652 5650 5647 5645 5644 5643 5641 5640 5639 5638 5637 5636 5634 5632 5631 5632 5635 5637 5639 5640 5641 5642 5643 5643 5643 5643 5644 5645 5646 5647 5648 5649 5650 5652 5654 5655 5657 5658
5659 5656 5653 5651 5648 5646 5644 5642 5640 5639 5638 5636 5636 5634 5632 5631 5631 5629 5626 5624 5623 5626 5628 5630 5633 5634 5634 5635 5635 5635 5635 5636 5638 5638 5639 5640 5641 5642 5644 5646 5648 5650 5651
5654 5651 5648 5645 5643 5641 5639 5636 5635 5634 5632 5631 5629 5628 5627 5626 5625 5624 5623 5621 5617 5616 5619 5622 5624 5627 5627 5627 5627 5627 5628 5629 5630 5631 5632 5633 5633 5635 5637 5638 5640 5642 5644
5648 5645 5643 5640 5638 5636 5634 5631 5629 5628 5626 5625 5624 5622 5620 5620 5619 5618 5617 5617 5615 5613 5612 5615 5616 5618 5620 5620 5620 5620 5621 5622 5623 5624 5625 5626 5626 5627 5629 5630 5632 5634 5636
5644 5641 5638 5635 5633 5631 5629 5627 5625 5623 5621 5619 5618 5616 5614 5613 5612 5611 5611 5611 5610 5608 5606 5608 5610 5611 5611 5612 5613 5614 5615 5616 5617 5617 5618 5619 5619 5620 5621 5623 5625 5627 5630
5640 5636 5633 5631 5629 5627 5625 5622 5620 5618 5616 5614 5612 5610 5609 5608 5606 5605 5604 5604 5603 5603 5601 5601 5602 5603 5604 5605 5606 5607 5609 5610 5611 5612 5612 5612 5613 5614 5615 5617 5618 5621 5623
5636 5633 5629 5626 5624 5622 5619 5617 5615 5613 5611 5609 5607 5605 5603 5602 5600 5599 5598 5597 5598 5599 5598 5596 5596 5598 5598 5600 5600 5601 5602 5603 5604 5606 5607 5606 5607 5607 5608 5610 5612 5615 5617
5631 5628 5625 5622 5619 5617 5614 5612 5610 5608 5606 5604 5603 5601 5599 5597 5595 5594 5593 5592 5593 5592 5592 5591 5591 5592 5593 5594 5594 5593 5593 5595 5597 5599 5600 5601 5601 5601 5603 5605 5607 5609 5611
5629 5625 5622 5618 5615 5613 5609 5606 5604 5604 5601 5599 5598 5596 5595 5593 5591 5589 5588 5587 5587 5586 5586 5586 5586 5586 5587 5587 5587 5588 5587 5588 5590 5592 5593 5595 5596 5596 5597 5599 5601 5603 5606
5625 5621 5618 5614 5611 5608 5603 5601 5598 5597 5596 5594 5592 5591 5591 5589 5588 5586 5584 5583 5582 5581 5580 5579 5580 5580 5580 5581 5581 5582 5581 5581 5583 5587 5587 5589 5591 5592 5594 5597 5599 5600 5602
5620 5617 5614 5610 5606 5603 5600 5597 5594 5592 5591 5590 5589 5587 5587 5587 5584 5583 5581 5581 5579 5578 5576 5575 5574 5575 5576 5576 5576 5576 5576 5577 5578 5581 5581 5584 5586 5588 5591 5594 5596 5598 5598
5618 5615 5611 5607 5604 5600 5597 5594 5590 5589 5588 5587 5586 5585 5583 5581 5579 5577 5577 5577 5577 5576 5575 5574 5573 5573 5574 5573 5572 5572 5572 5573 5576 5578 5578 5578 5582 5584 5588 5590 5592 5593 5594
5616 5612 5609 5606 5602 5598 5594 5591 5587 5586 5585 5584 5583 5582 5580 5578 5574 5572 5573 5572 5572 5572 5573 5572 5571 5571 5571 5570 5568 5567 5568 5567 5569 5572 5575 5575 5577 5579 5582 5584 5587 5588 5589
5614 5611 5608 5605 5601 5597 5592 5588 5584 5583 5582 5581 5581 5579 5577 5574 5571 5569 5568 5568 5567 5568 5568 5569 5568 5569 5569 5569 5568 5566 5565 5564 5565 5567 5571 5571 5572 5573 5575 5580 5582 5582 5582